TimeEST,TemperatureF,Dew PointF,Humidity,Sea Level PressureIn,VisibilityMPH,Wind Direction,Wind SpeedMPH,Gust SpeedMPH,PrecipitationIn,Events,Conditions,WindDirDegrees,DateUTC
12:15 AM,30.2,19.4,64,30.25,10.0,SSW,4.6,-,N/A,,Clear,210,2013-11-09 05:15:00
12:35 AM,30.2,19.4,64,30.25,10.0,SW,4.6,-,N/A,,Clear,220,2013-11-09 05:35:00
12:55 AM,28.4,19.4,69,30.25,10.0,SSW,4.6,-,N/A,,Clear,210,2013-11-09 05:55:00
1:15 AM,28.4,21.2,74,30.24,10.0,South,5.8,-,N/A,,Clear,190,2013-11-09 06:15:00
1:35 AM,28.4,19.4,69,30.24,10.0,SSW,5.8,-,N/A,,Clear,200,2013-11-09 06:35:00
1:55 AM,30.2,21.2,69,30.24,10.0,South,4.6,-,N/A,,Clear,190,2013-11-09 06:55:00
2:15 AM,28.4,21.2,74,30.24,10.0,South,4.6,-,N/A,,Clear,190,2013-11-09 07:15:00
2:35 AM,28.4,19.4,69,30.23,10.0,SSE,6.9,-,N/A,,Clear,160,2013-11-09 07:35:00
2:55 AM,28.4,19.4,69,30.23,10.0,South,5.8,-,N/A,,Partly Cloudy,170,2013-11-09 07:55:00
3:15 AM,26.6,21.2,80,30.24,10.0,South,5.8,-,N/A,,Partly Cloudy,170,2013-11-09 08:15:00
3:35 AM,28.4,21.2,74,30.23,10.0,South,6.9,-,N/A,,Clear,170,2013-11-09 08:35:00
3:55 AM,28.4,23.0,80,30.23,10.0,South,6.9,-,N/A,,Clear,170,2013-11-09 08:55:00
4:15 AM,30.2,23.0,75,30.22,10.0,SSE,8.1,-,N/A,,Mostly Cloudy,160,2013-11-09 09:15:00
4:35 AM,30.2,23.0,75,30.22,10.0,SSE,6.9,-,N/A,,Scattered Clouds,160,2013-11-09 09:35:00
4:55 AM,30.2,23.0,75,30.22,10.0,South,6.9,-,N/A,,Partly Cloudy,180,2013-11-09 09:55:00
5:15 AM,30.2,23.0,75,30.21,10.0,SSE,9.2,-,N/A,,Clear,160,2013-11-09 10:15:00
5:35 AM,30.2,23.0,75,30.20,10.0,SSE,5.8,-,N/A,,Clear,160,2013-11-09 10:35:00
5:55 AM,30.2,23.0,75,30.21,10.0,South,6.9,-,N/A,,Clear,180,2013-11-09 10:55:00
6:15 AM,30.2,23.0,75,30.20,10.0,SSE,6.9,-,N/A,,Clear,160,2013-11-09 11:15:00
6:35 AM,30.2,23.0,75,30.19,10.0,SSE,5.8,-,N/A,,Clear,160,2013-11-09 11:35:00
6:55 AM,30.2,23.0,75,30.19,10.0,South,6.9,-,N/A,,Clear,170,2013-11-09 11:55:00
7:15 AM,30.2,23.0,75,30.19,10.0,South,8.1,-,N/A,,Clear,170,2013-11-09 12:15:00
7:35 AM,30.2,24.8,80,30.19,10.0,South,8.1,-,N/A,,Clear,180,2013-11-09 12:35:00
7:55 AM,30.2,24.8,80,30.19,10.0,South,8.1,-,N/A,,Clear,170,2013-11-09 12:55:00
8:15 AM,32.0,24.8,75,30.19,10.0,South,9.2,-,N/A,,Clear,180,2013-11-09 13:15:00
8:35 AM,33.8,24.8,70,30.18,10.0,SSE,12.7,-,N/A,,Clear,160,2013-11-09 13:35:00
8:55 AM,33.8,24.8,70,30.16,10.0,SSE,13.8,-,N/A,,Clear,160,2013-11-09 13:55:00
9:15 AM,33.8,24.8,70,30.15,10.0,South,13.8,-,N/A,,Clear,170,2013-11-09 14:15:00
9:35 AM,35.6,26.6,70,30.14,10.0,South,11.5,19.6,N/A,,Clear,170,2013-11-09 14:35:00
9:55 AM,35.6,26.6,70,30.14,10.0,South,11.5,19.6,N/A,,Clear,180,2013-11-09 14:55:00
10:15 AM,39.2,26.6,61,30.14,10.0,South,13.8,-,N/A,,Clear,180,2013-11-09 15:15:00
10:35 AM,39.2,26.6,61,30.11,10.0,South,13.8,23.0,N/A,,Scattered Clouds,180,2013-11-09 15:35:00
10:55 AM,42.8,28.4,57,30.11,10.0,South,12.7,-,N/A,,Clear,180,2013-11-09 15:55:00
11:15 AM,42.8,28.4,57,30.08,10.0,South,17.3,-,N/A,,Clear,190,2013-11-09 16:15:00
11:35 AM,44.6,28.4,53,30.07,10.0,South,16.1,25.3,N/A,,Clear,180,2013-11-09 16:35:00
11:55 AM,44.6,26.6,49,30.05,10.0,South,16.1,23.0,N/A,,Partly Cloudy,180,2013-11-09 16:55:00
12:15 PM,44.6,26.6,49,30.03,10.0,South,15.0,20.7,N/A,,Mostly Cloudy,180,2013-11-09 17:15:00
12:35 PM,46.4,26.6,46,30.01,10.0,South,20.7,24.2,N/A,,Overcast,180,2013-11-09 17:35:00
12:55 PM,46.4,26.6,46,29.99,10.0,South,13.8,18.4,N/A,,Overcast,180,2013-11-09 17:55:00
1:15 PM,46.4,26.6,46,29.97,10.0,South,18.4,26.5,N/A,,Overcast,180,2013-11-09 18:15:00
1:35 PM,46.4,26.6,46,29.96,10.0,South,17.3,25.3,N/A,,Overcast,190,2013-11-09 18:35:00
1:55 PM,46.4,24.8,43,29.94,10.0,South,17.3,25.3,N/A,,Overcast,170,2013-11-09 18:55:00
2:15 PM,48.2,26.6,43,29.92,10.0,South,15.0,23.0,N/A,,Overcast,180,2013-11-09 19:15:00
2:35 PM,48.2,24.8,40,29.92,10.0,South,18.4,28.8,N/A,,Scattered Clouds,180,2013-11-09 19:35:00
2:55 PM,48.2,24.8,40,29.92,10.0,SSW,15.0,25.3,N/A,,Clear,200,2013-11-09 19:55:00
3:15 PM,48.2,24.8,40,29.92,10.0,South,16.1,-,N/A,,Clear,180,2013-11-09 20:15:00
3:35 PM,48.2,23.0,37,29.93,10.0,South,16.1,19.6,N/A,,Clear,190,2013-11-09 20:35:00
3:55 PM,50.0,24.8,37,29.92,10.0,South,17.3,21.9,N/A,,Clear,190,2013-11-09 20:55:00
4:15 PM,50.0,24.8,37,29.92,10.0,South,13.8,-,N/A,,Clear,190,2013-11-09 21:15:00
4:35 PM,48.2,24.8,40,29.92,10.0,South,11.5,-,N/A,,Scattered Clouds,190,2013-11-09 21:35:00
4:55 PM,48.2,24.8,40,29.91,10.0,South,12.7,-,N/A,,Overcast,190,2013-11-09 21:55:00
5:15 PM,48.2,24.8,40,29.92,10.0,SSW,10.4,-,N/A,,Overcast,200,2013-11-09 22:15:00
5:35 PM,48.2,24.8,40,29.92,10.0,SSW,10.4,16.1,N/A,,Overcast,200,2013-11-09 22:35:00
5:55 PM,50.0,24.8,37,29.92,10.0,SSW,9.2,-,N/A,,Overcast,200,2013-11-09 22:55:00
6:15 PM,50.0,24.8,37,29.93,10.0,SW,8.1,-,N/A,,Overcast,220,2013-11-09 23:15:00
6:35 PM,51.8,24.8,35,29.94,10.0,SW,8.1,-,N/A,,Overcast,220,2013-11-09 23:35:00
6:55 PM,51.8,26.6,38,29.94,10.0,SW,9.2,17.3,N/A,,Overcast,220,2013-11-09 23:55:00
7:15 PM,51.8,26.6,38,29.94,10.0,SW,10.4,-,N/A,,Overcast,220,2013-11-10 00:15:00
7:35 PM,51.8,28.4,41,29.94,10.0,SW,12.7,-,N/A,,Overcast,220,2013-11-10 00:35:00
7:55 PM,51.8,28.4,41,29.94,10.0,SW,11.5,23.0,N/A,,Overcast,220,2013-11-10 00:55:00
8:15 PM,51.8,30.2,44,29.94,10.0,SW,12.7,19.6,N/A,,Overcast,220,2013-11-10 01:15:00
8:35 PM,51.8,30.2,44,29.93,10.0,SW,12.7,20.7,N/A,,Overcast,230,2013-11-10 01:35:00
8:55 PM,51.8,30.2,44,29.93,10.0,SW,11.5,19.6,N/A,,Overcast,230,2013-11-10 01:55:00
9:15 PM,51.8,30.2,44,29.93,10.0,WSW,15.0,23.0,N/A,,Overcast,240,2013-11-10 02:15:00
9:35 PM,51.8,30.2,44,29.92,10.0,SW,13.8,20.7,N/A,,Overcast,230,2013-11-10 02:35:00
9:55 PM,51.8,30.2,44,29.92,10.0,SW,12.7,20.7,N/A,,Overcast,230,2013-11-10 02:55:00
10:15 PM,51.8,30.2,44,29.91,10.0,SW,11.5,20.7,N/A,,Overcast,220,2013-11-10 03:15:00
10:35 PM,51.8,32.0,47,29.90,10.0,SW,11.5,23.0,N/A,,Overcast,220,2013-11-10 03:35:00
10:55 PM,51.8,32.0,47,29.90,10.0,SW,13.8,28.8,N/A,,Overcast,230,2013-11-10 03:55:00
11:15 PM,51.8,33.8,50,29.91,10.0,WSW,19.6,26.5,N/A,,Overcast,240,2013-11-10 04:15:00
11:35 PM,51.8,33.8,50,29.91,10.0,WSW,17.3,27.6,N/A,,Overcast,240,2013-11-10 04:35:00
11:55 PM,51.8,33.8,50,29.91,10.0,SW,13.8,26.5,N/A,,Overcast,230,2013-11-10 04:55:00